Flag for U.S.A. Weather past 2 weeks in Walnut Creek, California, U.S.A.

Now
55 °F

Overcast.


Feels Like: 52 °F
Forecast: 54 / 68 °F
Wind: 13 mph from Southwest

Location: Buchanan Field

Current Time: May 25, 2015 at 5:12:34 AM

Latest Report: May 25, 2015 at 4:53 AM


Visibility: 10 mi

Pressure: 29.88 "Hg

Humidity: 80%

Dew point: 49 °F

Location of Walnut CreekLocation

Historic Weather in Walnut Creek — Graph

°F

Walnut Creek temperature yesterday

Maximum temperature yesterday: 71 °F (at 1:53 PM)
Minimum temperature yesterday: 54 °F (at 1:53 AM)
Average temperature yesterday: 61 °F

Past Weeks' High & Low Weather Summary

 TemperatureHumidityPressure
High73 °F (May 10, 3:53 PM)86% (May 15, 4:53 AM)30.10 "Hg (May 15, 4:53 AM)
Low50 °F (May 12, 3:53 AM)30% (May 12, 4:53 PM)29.74 "Hg (May 14, 5:53 PM)
Average60 °F65%29.92 "Hg
* Reported May 10 3:53 AM — May 25 3:53 AM, Walnut Creek, Weather by CustomWeather, © 2015

Note: Actual official high and low records may vary slightly from our data, if they occured in-between our weather recording intervals... More about our weather records

Advertising

Walnut Creek weather history for previous 24 hours

 ConditionsComfort  
Time TempWeatherWind HumidityBarometerVisibility
3:53 AM
Mon, May 25
55 °FOvercast.14 mph77%29.89 "Hg10 mi
2:53 AM55 °FOvercast.15 mph80%29.89 "Hg10 mi
1:53 AM56 °FOvercast.10 mph81%29.90 "Hg10 mi
12:53 AM56 °FOvercast.14 mph81%29.90 "Hg10 mi
11:53 PM
Sun, May 24
56 °FOvercast.13 mph77%29.92 "Hg10 mi
10:53 PM56 °FOvercast.16 mph77%29.93 "Hg10 mi
9:53 PM56 °FOvercast.16 mph77%29.93 "Hg10 mi
8:53 PM56 °FPartly sunny.14 mph77%29.91 "Hg10 mi
7:53 PM58 °FScattered clouds.18 mph72%29.89 "Hg10 mi
6:53 PM62 °FSunny.16 mph62%29.89 "Hg10 mi
5:53 PM67 °FSunny.15 mph53%29.88 "Hg10 mi
4:53 PM70 °FSunny.16 mph49%29.88 "Hg10 mi
3:53 PM71 °FSunny.22 mph45%29.90 "Hg10 mi
2:53 PM71 °FSunny.17 mph45%29.91 "Hg10 mi
1:53 PM71 °FSunny.20 mph45%29.93 "Hg10 mi
12:53 PM70 °FSunny.15 mph49%29.93 "Hg10 mi
11:53 AM67 °FSunny.15 mph53%29.94 "Hg10 mi
10:53 AM65 °FSunny.16 mph56%29.96 "Hg10 mi
9:53 AM63 °FSunny.16 mph60%29.96 "Hg10 mi
8:53 AM60 °FSunny.14 mph67%29.96 "Hg10 mi
7:53 AM57 °FSunny.15 mph74%29.96 "Hg10 mi
6:53 AM55 °FSunny.12 mph80%29.96 "Hg10 mi
5:53 AM54 °FClear.9 mph80%29.94 "Hg10 mi
Weather by CustomWeather, © 2015

See weather overviewHow to use our weather pages